Regional Weather Roundup
Issued by NWS

Home | Current Version | Previous Version | Graphics & Text | Print | Product List | Glossary On
Versions: 1 2 3 4 5 6 7 8 9 10 11 12 13 14 15 16 17 18 19 20 21 22 23 24 25 26 27 28 29 30 31 32 33 34 35 36 37 38 39 40 41 42 43 44 45 46 47 48 49 50
000
ASUS43 KFSD 250210
RWRSD

WEATHER ROUNDUP FOR SOUTH DAKOTA
NATIONAL WEATHER SERVICE SIOUX FALLS SD
900 PM CDT FRI MAR 24 2017

NOTE: "FAIR" INDICATES FEW OR NO CLOUDS BELOW 12,000 FEET WITH NO
SIGNIFICANT WEATHER AND/OR OBSTRUCTIONS TO VISIBILITY.


SDZ001>005-009-010-012>017-250300-
NORTHWEST AND NORTH CENTRAL SOUTH DAKOTA

CITY           SKY/WX    TMP DP  RH WIND       PRES   REMARKS
BUFFALO          N/A     48  33  56 SE14      29.95R
FAITH            N/A     48  33  56 SE15      30.06R
MOBRIDGE       CLEAR     43  31  62 E10       30.09R
$$

SDZ012>016-024>037-041>051-057-063-072>074-250300-
SOUTHWEST AND SOUTH CENTRAL SOUTH DAKOTA

CITY           SKY/WX    TMP DP  RH WIND       PRES   REMARKS
RAPID CTY ARPT CLEAR     45  29  53 SE7       30.05R
PIERRE         CLEAR     40  32  73 E9        30.10S
CUSTER         CLEAR     42  26  53 SE5       30.09R
ELLSWORTH AFB  CLEAR     50  30  47 SE13      30.04S
PHILIP         CLEAR     45  31  58 E10       30.07S
PINE RIDGE     CLEAR     47  30  51 SE9       30.08S
SPEARFISH      FAIR      41  30  65 E7        30.03S
WINNER         FAIR      41  32  70 SE8       30.12R
$$

SDZ004>011-016>023-039-040-250300-
NORTHEAST SOUTH DAKOTA

CITY           SKY/WX    TMP DP  RH WIND       PRES   REMARKS
ABERDEEN       CLEAR     35  29  78 NE9       30.15S WCI  28
WATERTOWN      PTCLDY    33  31  92 NE8       30.13R WCI  26
BROOKINGS      CLOUDY    37  34  89 NE6       30.13R
SISSETON         N/A     31  29  92 N7        30.16S WCI  24
$$

SDZ017-020-022-023-036>040-048>070-250300-
SOUTHEAST SOUTH DAKOTA

CITY           SKY/WX    TMP DP  RH WIND       PRES   REMARKS
SIOUX FALLS    CLOUDY    39  35  86 NE17      30.14R
HURON          PTCLDY    36  33  89 SE5       30.15R
CHAMBERLAIN    PTCLDY    43  35  74 N3        30.14R
MITCHELL       CLEAR     35  32  88 NE8       30.16R WCI  29
YANKTON        CLOUDY    39  36  87 NE13      30.11S
$$

ABBREVIATIONS USED IN REMARKS
   TC - TEMPERATURE IN CELSIUS
  WCI - WIND CHILL INDEX
   HX - HEAT INDEX
  VSB - VISIBILITY





USA.gov is the U.S. government's official web portal to all federal, state and local government web resources and services.